OBJECT D, 69505

Orbit data source: Space-Track

You're viewing an Uncataloged Satellite

Recently launched and/or uncataloged satellites may have evolving metadata. Metadata may include but not limited to: Owner, Maufacturer, Bus, Motor, and Mission.

OBJECT D, 69505 is a satellite in SSO that was launched on Fri, 12 Jun 2026 UTC via a H3-30S launch vehicle from the Tanegashima Space Center (TNSTA). Unknown objects in Earth's orbit typically refer to objects detected orbiting the Earth but have not yet been identified or cataloged. These objects could be anything from previously untracked satellites, spent rocket stages, debris from satellite collisions, or even natural meteoroids temporarily captured by Earth's gravity.

Loading next visibility...
Identifier
69505, 2026-132D
Orbit
SSO
Country
Flag of TBDTBD
Related business
None
Manufacturer
Unknown
Mission
Operational spacecraft
Bus & Motor
Unknown
Mass
Unknown
Launch date (UTC)
2026-06-12 (1 day ago)
Launch vehicle
H3-30S
Launch site
Tanegashima Space Center (TNSTA)
Object type
Unknown
Shape & HBR
Unknown
Radar Cross Section
RCS unknown

Expand to show TLE details & history
Last TLE update: 9 hours ago

TLE from 9 hours ago
0 OBJECT D
1 69505U 26132D   26164.41554847  .00001509  00000-0  12292-3 0  9990
2 69505  97.6871 228.1350 0011034 315.3023  44.7311 15.00977591   208
Epoch: 2026-06-13T09:58Z
TLE epoch observation values (Epoch: 2026-06-13T09:58:23.387Z)
Latitude
-0.00002°
Longitude
176.80659°
Altitude
561.498 km
Speed
7.584 km/s
True Right ascension
15h 12m 32s
True Declination
0° 00' 00"
Sunlit
Object was in full shadow at epoch
Visualization orbit readout
Latitude
Unknown
Longitude
Unknown
Altitude
Unknown
Speed
Unknown
Apparent Right ascension
Unknown
Apparent Declination
Unknown
Sunlit
N/A
Visualization observer readout
Local Sidereal Time
05:00:18
Azimuth
Unknown
Elevation
Unknown
Doppler factor
Unknown
Orbital elements
Apogee altitude
568.54 km
Perigee altitude
553.227 km
Semi-major axis
6,939.021 km
Eccentricity
0.0011
Inclination
97.6871°
RAAN
228.135°
Arg. of periapsis
315.3023°
True anomaly
44.82017°
Mean anomaly
44.7311°
Eccentric anomaly
44.77563°
Mean motion
3.75488 °/min
Orbital period
95.88 mins
BSTAR
0.00012292
Loading maneuver chart data...
Computing Atmospheric mass density...
Loading historical data...
Loading historical data...
Loading historical data...
Loading historical data...
Loading historical data...
Loading historical data...
Loading historical data...
Other satellites on launch #132 in the year 2026 (2026-06-12 UTC)

Documentation

Showing up to 5 results
|